TimeCDT,TemperatureF,Dew PointF,Humidity,Sea Level PressureIn,VisibilityMPH,Wind Direction,Wind SpeedMPH,Gust SpeedMPH,PrecipitationIn,Events,Conditions,WindDirDegrees,DateUTC
12:52 AM,57.9,55.0,90,30.16,10.0,Calm,Calm,-,N/A,,Partly Cloudy,0,2013-06-13 05:52:00
1:52 AM,55.9,55.0,97,30.17,10.0,NE,3.5,-,N/A,,Clear,50,2013-06-13 06:52:00
2:52 AM,55.0,54.0,96,30.17,10.0,Calm,Calm,-,N/A,,Clear,0,2013-06-13 07:52:00
3:52 AM,55.0,54.0,96,30.14,7.0,ENE,4.6,-,N/A,,Clear,70,2013-06-13 08:52:00
4:52 AM,55.0,54.0,96,30.12,10.0,ENE,8.1,-,N/A,,Clear,60,2013-06-13 09:52:00
5:52 AM,53.1,52.0,96,30.15,10.0,Calm,Calm,-,N/A,,Clear,0,2013-06-13 10:52:00
6:52 AM,54.0,53.1,97,30.16,10.0,Calm,Calm,-,N/A,,Clear,0,2013-06-13 11:52:00
7:52 AM,57.0,55.0,93,30.14,10.0,ESE,4.6,-,N/A,,Clear,120,2013-06-13 12:52:00
8:52 AM,64.0,54.0,70,30.13,10.0,SSE,8.1,-,N/A,,Clear,150,2013-06-13 13:52:00
9:52 AM,66.0,53.1,63,30.13,10.0,SSE,12.7,-,N/A,,Clear,160,2013-06-13 14:52:00
10:52 AM,69.1,51.1,53,30.13,10.0,SE,13.8,-,N/A,,Clear,140,2013-06-13 15:52:00
11:52 AM,71.1,52.0,51,30.10,10.0,SSE,15.0,-,N/A,,Clear,150,2013-06-13 16:52:00
12:52 PM,73.0,53.1,49,30.09,10.0,SSE,13.8,-,N/A,,Clear,160,2013-06-13 17:52:00
1:52 PM,73.9,53.1,48,30.06,10.0,South,15.0,-,N/A,,Clear,180,2013-06-13 18:52:00
2:52 PM,75.0,54.0,48,30.04,10.0,SSE,16.1,25.3,N/A,,Clear,160,2013-06-13 19:52:00
3:52 PM,73.0,54.0,51,30.01,10.0,SSE,18.4,-,N/A,,Clear,160,2013-06-13 20:52:00
4:52 PM,73.0,55.0,53,29.99,10.0,SSE,18.4,24.2,N/A,,Clear,150,2013-06-13 21:52:00
5:52 PM,73.9,55.0,52,29.96,10.0,SSE,21.9,27.6,N/A,,Clear,150,2013-06-13 22:52:00
6:52 PM,73.0,55.0,53,29.97,10.0,SE,15.0,23.0,N/A,,Clear,140,2013-06-13 23:52:00
7:52 PM,71.1,55.9,59,29.98,10.0,SSE,11.5,-,N/A,,Clear,150,2013-06-14 00:52:00
8:52 PM,70.0,55.0,59,29.98,10.0,SE,9.2,-,N/A,,Overcast,140,2013-06-14 01:52:00
9:52 PM,66.9,55.9,68,29.96,10.0,SE,8.1,-,N/A,,Scattered Clouds,140,2013-06-14 02:52:00
10:52 PM,66.9,55.9,68,29.93,10.0,SE,10.4,-,N/A,,Overcast,130,2013-06-14 03:52:00
11:52 PM,64.9,55.0,70,29.90,10.0,SE,11.5,-,N/A,,Clear,130,2013-06-14 04:52:00